WetterOnline ( https://www.wetteronline.ch )

Wetter aktuell Waibstadt

Aktuelles Wetter: Waibstadt (237m)

6-stündlich | Neueste Meldungen
Ortszeit Temperatur Wetter
Sa, 15.08. 8:00 17.2° C Nebel
Sa, 15.08. 2:00 18.5° C Nebel
Fr, 14.08. 20:00 19.3° C leichter Regen
Fr, 14.08. 14:00 24.0° C bedeckt
Fr, 14.08. 8:00 19.1° C bedeckt
Fr, 14.08. 2:00 19.6° C bedeckt
Do, 13.08. 20:00 20.8° C bedeckt
Do, 13.08. 14:00 24.1° C wolkig
Ortszeit Temperatur Wetter
Sa, 15.08. 9:00 17.8° C Nebel
Sa, 15.08. 8:50 17.8° C Nebel
Sa, 15.08. 8:40 17.7° C Nebel
Sa, 15.08. 8:30 17.5° C Nebel
Sa, 15.08. 8:20 17.5° C Nebel
Sa, 15.08. 8:10 17.2° C Nebel
Sa, 15.08. 8:00 17.2° C Nebel
Sa, 15.08. 7:30 17.1° C Nebel
Sa, 15.08. 7:00 17.0° C Nebel
Sa, 15.08. 6:30 17.2° C Nebel
Sa, 15.08. 6:00 17.1° C Nebel
Ortszeit Relative Feuchte Sichtweite
Sa, 15.08. 8:00 99% 0.4 km
Sa, 15.08. 2:00 99% 0.9 km
Fr, 14.08. 20:00 94% 28 km
Fr, 14.08. 14:00 66% 65 km
Fr, 14.08. 8:00 93% 17 km
Fr, 14.08. 2:00 89% 30 km
Do, 13.08. 20:00 89% 30 km
Do, 13.08. 14:00 76% 30 km
Ortszeit Relative Feuchte Sichtweite
Sa, 15.08. 9:00 99% 0.5 km
Sa, 15.08. 8:50 99% -
Sa, 15.08. 8:40 99% -
Sa, 15.08. 8:30 99% 100 m
Sa, 15.08. 8:20 99% -
Sa, 15.08. 8:10 99% -
Sa, 15.08. 8:00 99% 0.4 km
Sa, 15.08. 7:30 99% 0.4 km
Sa, 15.08. 7:00 99% 100 m
Sa, 15.08. 6:30 99% 100 m
Sa, 15.08. 6:00 99% 100 m
Ortszeit Niederschlagsmenge Niederschlagsart
Sa, 15.08. 8:00 0.7 l/m2 in 12 Std. -
Sa, 15.08. 2:00 0.6 l/m2 in 6 Std. Regen
Fr, 14.08. 20:00 10 l/m2 in 12 Std. Regen
Fr, 14.08. 14:00 0.1 l/m2 in 6 Std. Regen
Fr, 14.08. 8:00 0.1 l/m2 in 12 Std. Regen
Fr, 14.08. 2:00 0.0 l/m2 in 6 Std. -
Do, 13.08. 20:00 3 l/m2 in 12 Std. Regen, Niederschlag
Do, 13.08. 14:00 2 l/m2 in 6 Std. Regen
Ortszeit Niederschlagsmenge Niederschlagsart
Sa, 15.08. 9:00 0.0 l/m2 in 1 Std. -
Sa, 15.08. 8:50 keine Meldung -
Sa, 15.08. 8:40 keine Meldung -
Sa, 15.08. 8:30 0.0 l/m2 in 1 Std. -
Sa, 15.08. 8:20 keine Meldung -
Sa, 15.08. 8:10 keine Meldung -
Sa, 15.08. 8:00 0.1 l/m2 in 1 Std. -
Sa, 15.08. 7:30 0.1 l/m2 in 1 Std. -
Sa, 15.08. 7:00 0.1 l/m2 in 1 Std. -
Sa, 15.08. 6:30 0.1 l/m2 in 1 Std. -
Sa, 15.08. 6:00 0.0 l/m2 in 1 Std. -
Ortszeit Stärke Spitze Richtung
km/h Bft. km/h Grad Sektor
Sa, 15.08. 8:00 4 1 7 230° SW
Sa, 15.08. 2:00 4 1 11 170° S
Fr, 14.08. 20:00 4 1 32 50° NO
Fr, 14.08. 14:00 13 3 24 230° SW
Fr, 14.08. 8:00 4 1 11 130° SO
Fr, 14.08. 2:00 4 1 14 90° O
Do, 13.08. 20:00 4 1 25 100° O
Do, 13.08. 14:00 6 1 20 120° SO
Ortszeit Stärke Spitze Richtung
km/h Bft. km/h Grad Sektor
Sa, 15.08. 9:00 4 1 4 110° O
Sa, 15.08. 8:50 4 1 - 110° O
Sa, 15.08. 8:40 4 1 - 100° O
Sa, 15.08. 8:30 0 0 4 - -
Sa, 15.08. 8:20 2 1 - 170° S
Sa, 15.08. 8:10 4 1 - 80° O
Sa, 15.08. 8:00 4 1 4 230° SW
Sa, 15.08. 7:30 4 1 4 180° S
Sa, 15.08. 7:00 4 1 7 100° O
Sa, 15.08. 6:30 4 1 7 90° O
Sa, 15.08. 6:00 4 1 4 360° N
Ortszeit Untergrenze Bedeckung Gattung
total tief tief mittel hoch
Sa, 15.08. 8:00 <30 m 6/8 0/8 - - -
Sa, 15.08. 2:00 <30 m 8/8 0/8 - - -
Fr, 14.08. 20:00 3300 m 7/8 8/8 - - -
Fr, 14.08. 14:00 3600 m 8/8 8/8 - - -
Fr, 14.08. 8:00 3000 m 8/8 8/8 - - -
Fr, 14.08. 2:00 3000 m 8/8 8/8 - - -
Do, 13.08. 20:00 3000 m 8/8 8/8 - - -
Do, 13.08. 14:00 2100 m 8/8 1/8 - - -
Ortszeit Bedeckungsgrad in Achtel und Wolkenuntergrenze
Sa, 15.08. 9:00 7(<30m) 8(3600m)
Sa, 15.08. 8:50 7(<30m) 8(3600m)
Sa, 15.08. 8:40 8(<30m) 8(3300m)
Sa, 15.08. 8:30 7(<30m) 7(3300m)
Sa, 15.08. 8:20 7(<30m) 7(3300m)
Sa, 15.08. 8:10 5(<30m) 5(3300m) 6(4200m)
Sa, 15.08. 8:00 1(<30m) 6(4200m) 5(4200m)
Sa, 15.08. 7:30 6(<30m) 8(4200m)
Sa, 15.08. 7:00 8(<30m) 8(4200m)
Sa, 15.08. 6:30 8(<30m)
Sa, 15.08. 6:00 2(<30m)
Ortszeit Luftdruck NN (hPa) Tendenz (hPa in 3 Std.)
Sa, 15.08. 8:00 1015 + 0,7
Sa, 15.08. 2:00 1015 + 0,1
Fr, 14.08. 20:00 1014 + 0,2
Fr, 14.08. 14:00 1014 - 0,2
Fr, 14.08. 8:00 1014 + 0,5
Fr, 14.08. 2:00 1014 0,0
Do, 13.08. 20:00 1014 - 1,2
Do, 13.08. 14:00 1015 + 0,5
Ortszeit Luftdruck NN (hPa) Tendenz (hPa in 3 Std.)
Sa, 15.08. 9:00 1016 + 1,0
Sa, 15.08. 8:50 1016 keine Meldung
Sa, 15.08. 8:40 1016 keine Meldung
Sa, 15.08. 8:30 1015 + 0,8
Sa, 15.08. 8:20 1015 keine Meldung
Sa, 15.08. 8:10 1015 keine Meldung
Sa, 15.08. 8:00 1015 + 0,7
Sa, 15.08. 7:30 1015 + 0,4
Sa, 15.08. 7:00 1015 + 0,3
Sa, 15.08. 6:30 1015 - 0,3
Sa, 15.08. 6:00 1015 - 0,4
Ortszeit Schneehöhe (cm)
Sa, 15.08. 8:00 -
Sa, 15.08. 2:00 -
Fr, 14.08. 20:00 -
Fr, 14.08. 14:00 -
Fr, 14.08. 8:00 -
Fr, 14.08. 2:00 -
Do, 13.08. 20:00 -
Do, 13.08. 14:00 -
Ortszeit Schneehöhe (cm)
Sa, 15.08. 9:00 -
Sa, 15.08. 8:50 -
Sa, 15.08. 8:40 -
Sa, 15.08. 8:30 -
Sa, 15.08. 8:20 -
Sa, 15.08. 8:10 -
Sa, 15.08. 8:00 -
Sa, 15.08. 7:30 -
Sa, 15.08. 7:00 -
Sa, 15.08. 6:30 -
Sa, 15.08. 6:00 -
Link zu dieser Seite / Seite empfehlen

Das Wetter in ...